Weather History for Zamboanga, Philippines

Change the Weather History Date:

Friday, October 26, 2012

  Actual Average Record
Temperature  
Mean Temperature 84 °F -  
Max Temperature 91 °F 89 °F - ()
Min Temperature 76 °F 74 °F - ()
Cooling Degree Days 18    
Growing Degree Days 34 (Base 50)    
Moisture  
Dew Point 77 °F    
Average Humidity 75    
Maximum Humidity 94    
Minimum Humidity 60    
Precipitation  
Precipitation 0.00 in 0.14 in - ()
Sea Level Pressure  
Sea Level Pressure 29.81 in    
Wind  
Wind Speed 2 mph ()    
Max Wind Speed 5 mph    
Max Gust Speed -    
Visibility 6.3 miles    
Events      
T = Trace of Precipitation, MM = Missing Value Source: Averaged Metar Reports

Daily Weather History Graph

Daily Weather History Graph

Search for Another Location

Airport:

Trip Planner

Search our weather history database for the weather conditions in past years. The results will help you decide how hot, cold, wet, or windy it might be!

Date:

Astronomy

Oct. 26, 2012 Rise Set
Actual Time 5:38 AM PHT 5:32 PM PHT
Civil Twilight 5:17 AM PHT 5:54 PM PHT
Nautical Twilight 4:52 AM PHT 6:18 PM PHT
Astronomical Twilight 4:27 AM PHT 6:43 PM PHT
Moon 2:59 PM PHT (10/26) 2:37 AM PHT (10/26)
Length of Visible Light 12h 37m
Length of Day
11h 54m
Waxing Gibbous, 88% of the Moon is Illuminated
Oct 26
Waxing Gibbous
Oct 30
Full
Nov 7
Last Quarter
Nov 14
New
Nov 20
First Quarter

Hourly Weather History & Observations

Time (PHT) Temp. Heat Index Dew Point Humidity Pressure Visibility Wind Dir Wind Speed Gust Speed Precip Events Conditions
2:00 AM 77 °F - 75 °F 91% 29.78 in 6 mi Calm Calm - -   Scattered Clouds
2:00 AM 77.0 °F - 75.2 °F 94% 29.77 in 6.2 mi Calm Calm - N/A   Mostly Cloudy
5:00 AM 77 °F - 75 °F 92% 29.78 in 6 mi Calm Calm - -   Scattered Clouds
6:00 AM 77.0 °F - 75.2 °F 94% 29.80 in 6.2 mi NNE 4.6 mph - N/A   Scattered Clouds
8:00 AM 83 °F - 77 °F 79% 29.85 in 7 mi NNE 4.5 mph - -   Partly Cloudy
8:00 AM 82.4 °F 90.9 °F 77.0 °F 84% 29.86 in 6.2 mi NNE 4.6 mph - N/A   Scattered Clouds
9:00 AM 86.0 °F 96.9 °F 77.0 °F 74% 29.86 in 6.2 mi NE 4.6 mph - N/A   Scattered Clouds
10:00 AM 87.8 °F 99.7 °F 77.0 °F 70% 29.86 in 6.2 mi East 4.6 mph - N/A   Scattered Clouds
11:00 AM 89 °F - 77 °F 61% 29.84 in 7 mi East 4.5 mph - -   Partly Cloudy
11:00 AM 87.8 °F 99.7 °F 77.0 °F 70% 29.86 in 6.2 mi East 4.6 mph - N/A   Scattered Clouds
12:00 PM 89.6 °F 102.2 °F 77.0 °F 66% 29.83 in 6.2 mi Calm Calm - N/A   Partly Cloudy
1:00 PM 89.6 °F 104.7 °F 78.8 °F 70% 29.80 in 6.2 mi NE 4.6 mph - N/A   Partly Cloudy
2:00 PM 90 °F - 78 °F 61% 29.76 in 7 mi NE 4.5 mph - -   Scattered Clouds
2:00 PM 89.6 °F 104.7 °F 78.8 °F 70% 29.77 in 6.2 mi NE 4.6 mph - N/A   Scattered Clouds
3:00 PM 91.4 °F 105.1 °F 77.0 °F 63% 29.74 in 6.2 mi NE 4.6 mph - N/A   Partly Cloudy
4:00 PM 89.6 °F 102.2 °F 77.0 °F 66% 29.77 in 6.2 mi NE 4.6 mph - N/A   Partly Cloudy
5:00 PM 89 °F - 77 °F 60% 29.78 in 6 mi Calm Calm - -   Haze
5:00 PM 89.6 °F 102.2 °F 77.0 °F 66% 29.77 in 6.2 mi Calm Calm - N/A   Mostly Cloudy
8:00 PM 83 °F - 78 °F 79% 29.83 in 6 mi Calm Calm - -   Haze
8:00 PM 82.4 °F 90.9 °F 77.0 °F 84% 29.83 in 6.2 mi Calm Calm - N/A   Scattered Clouds
11:00 PM 79 °F - 74 °F 80% 29.84 in 6 mi Calm Calm - -   Haze